Zurück zum Katalog

STARLINK-32144

AktivKommunikationVLEO
NORAD 60269·PAYLOAD·🇺🇸 United States

Gestartet Jul 27, 2024 von Cape Canaveral Space Force Station

Loading…

Nächste Überflüge (nächste 24 Stunden)

TLE

AktuellSource: CelesTrak SupGP

Epoche: Sep 14, 2026, 20:40 UTC

1 60269C 24131Q   26257.86159722  .00055932  00000+0  17988-2 0  2571
2 60269  53.1568 252.2530 0000767 149.6171 176.8693 15.31671680    10

Verfolge STARLINK-32144 in Echtzeit mit AllMySat

Download on the App Store